User: anonymous   Login
Location: Belvedere Heights
(33.9836°N, 117.3109°W)
Time: 09:47:37
(UTC+00:00)
Language:

ATLAS CENTAUR R/B - Orbit

View from above orbital plane
View from above orbital plane
View from above satellite
View from above satellite

Ground track
Ground track

The orbit data is extracted from the following two-line orbital elements,

1 38770U 12048N   23264.14515084 0.00012000  00000-0  64695-3 0    04
2 38770  64.6699 346.5909 0110832 126.2670 233.7330 15.09300694    00
Epoch (UTC): 21 September 2023 03:29:01
Eccentricity: 0.0110832
inclination: 64.6699°
perigee height: 461 km
apogee height: 615 km
right ascension of ascending node: 346.5909°
argument of perigee: 126.2670°
revolutions per day: 15.09300694
mean anomaly at epoch: 233.7330°
orbit number at epoch: 0

The dashed part of the orbit path shows where the satellite is in the earth's shadow,  

DLR